Terug naar catalogus

N-1 DEB

ActiefLEO
NORAD 13132·DEBRIS·🇯🇵 Japan

Gelanceerd Feb 16, 1978 vanaf Tanegashima Space Center

Loading…

Volgende Passages (komende 24 uur)

TLE

VersSource: Space-Track

Epoch: Sep 14, 2026, 07:01 UTC

1 13132U 78018C   26257.29240825 -.00000059  00000-0 -16537-4 0  9990
2 13132  69.2091 358.7590 0208737  29.4810   1.9363 13.34992836365281

Volg N-1 DEB in realtime met AllMySat

Download on the App Store